Clinton, IA

3:48 PM CDT on May 24, 2017 (GMT -0500)
Clinton Municipal

Weather History for KCWI - October, 2012

Change the Weather History Date:

Thursday, October 4, 2012

  Actual Average Record
Temperature  
Mean Temperature 50 °F -  
Max Temperature 64 °F 70 °F 88 °F (1969)
Min Temperature 37 °F 45 °F 28 °F (1989)
Degree Days  
Heating Degree Days 14    
Moisture  
Dew Point 43 °F    
Average Humidity 71    
Maximum Humidity 88    
Minimum Humidity 45    
Precipitation  
Precipitation 0.00 in - - ()
Sea Level Pressure  
Sea Level Pressure 30.09 in    
Wind  
Wind Speed 9 mph (WSW)    
Max Wind Speed 21 mph    
Max Gust Speed 28 mph    
Visibility 10 miles    
Events Thunderstorm    
Averages and records for this station are not official NWS values.
T = Trace of Precipitation, MM = Missing Value Source: NWS Daily Summary

Daily Weather History Graph

Daily Weather History Graph

Search for Another Location

Airport or City:

Trip Planner

Search our weather history database for the weather conditions in past years. The results will help you decide how hot, cold, wet, or windy it might be!

Date:

Astronomy

Oct. 04, 2012 Rise Set
Actual Time 7:01 AM CDT 6:37 PM CDT
Civil Twilight 6:34 AM CDT 7:04 PM CDT
Nautical Twilight 6:01 AM CDT 7:36 PM CDT
Astronomical Twilight 5:29 AM CDT 8:09 PM CDT
Moon 9:08 PM CDT (10/4) 11:23 AM CDT (10/4)
Length of Visible Light 12h 30m
Length of Day
11h 35m
Waning Gibbous, 82% of the Moon is Illuminated
Oct 4
Waning Gibbous
Oct 8
Last Quarter
Oct 15
New
Oct 21
First Quarter
Oct 29
Full

Hourly Weather History & Observations

Time (CDT) Temp. Windchill Dew Point Humidity Pressure Visibility Wind Dir Wind Speed Gust Speed Precip Events Conditions
12:15 AM 53.6 °F - 48.2 °F 82% 30.03 in 10.0 mi SSE 6.9 mph - N/A   Clear
12:35 AM 53.6 °F - 48.2 °F 82% 30.03 in 10.0 mi SSE 8.1 mph - N/A   Clear
12:55 AM 53.6 °F - 48.2 °F 82% 30.03 in 10.0 mi SSE 6.9 mph - N/A   Clear
1:15 AM 53.6 °F - 48.2 °F 82% 30.03 in 10.0 mi SSE 6.9 mph - N/A   Clear
1:35 AM 53.6 °F - 48.2 °F 82% 30.04 in 10.0 mi SSE 4.6 mph - N/A   Clear
1:55 AM 51.8 °F - 46.4 °F 82% 30.03 in 10.0 mi SSE 5.8 mph - N/A   Clear
2:15 AM 53.6 °F - 48.2 °F 82% 30.03 in 10.0 mi SSE 5.8 mph - N/A   Clear
2:35 AM 53.6 °F - 48.2 °F 82% 30.03 in 10.0 mi South 5.8 mph - N/A   Clear
2:55 AM 53.6 °F - 48.2 °F 82% 30.03 in 10.0 mi South 5.8 mph - N/A   Clear
3:15 AM 51.8 °F - 46.4 °F 82% 30.03 in 10.0 mi South 4.6 mph - N/A   Clear
3:35 AM 50.0 °F - 46.4 °F 87% 30.03 in 10.0 mi South 4.6 mph - N/A   Clear
3:55 AM 50.0 °F - 46.4 °F 87% 30.03 in 10.0 mi South 4.6 mph - N/A   Clear
4:15 AM 51.8 °F - 46.4 °F 82% 30.02 in 10.0 mi South 5.8 mph - N/A   Clear
4:35 AM 51.8 °F - 48.2 °F 88% 30.02 in 10.0 mi South 5.8 mph - N/A   Clear
4:55 AM 51.8 °F - 48.2 °F 88% 30.03 in 10.0 mi South 5.8 mph - N/A   Clear
5:15 AM 53.6 °F - 48.2 °F 82% 30.03 in 10.0 mi South 6.9 mph - N/A   Clear
5:35 AM 51.8 °F - 46.4 °F 82% 30.02 in 10.0 mi South 5.8 mph - N/A   Clear
5:55 AM 51.8 °F - 46.4 °F 82% 30.02 in 10.0 mi South 6.9 mph - N/A   Clear
6:15 AM 51.8 °F - 48.2 °F 88% 30.02 in 10.0 mi South 4.6 mph - N/A   Clear
6:35 AM 53.6 °F - 48.2 °F 82% 30.02 in 10.0 mi South 5.8 mph - N/A   Clear
6:55 AM 51.8 °F - 48.2 °F 88% 30.02 in 10.0 mi South 6.9 mph - N/A   Clear
7:15 AM 53.6 °F - 48.2 °F 82% 30.02 in 10.0 mi South 6.9 mph - N/A   Clear
7:35 AM 53.6 °F - 50.0 °F 88% 30.01 in 10.0 mi South 6.9 mph - N/A   Clear
7:55 AM 55.4 °F - 51.8 °F 88% 30.02 in 10.0 mi SSW 8.1 mph - N/A   Clear
8:15 AM 57.2 °F - 51.8 °F 82% 30.02 in 10.0 mi SSW 10.4 mph - N/A   Clear
8:35 AM 60.8 °F - 53.6 °F 77% 30.02 in 10.0 mi SW 10.4 mph - N/A   Clear
8:55 AM 62.6 °F - 53.6 °F 72% 30.03 in 10.0 mi WSW 16.1 mph - N/A   Clear
9:15 AM 64.4 °F - 51.8 °F 64% 30.04 in 10.0 mi West 18.4 mph 25.3 mph N/A   Clear
9:35 AM 64.4 °F - 50.0 °F 59% 30.03 in 10.0 mi WSW 12.7 mph 24.2 mph N/A   Clear
9:55 AM 64.4 °F - 48.2 °F 56% 30.03 in 10.0 mi West 15.0 mph - N/A   Clear
10:15 AM 64.4 °F - 50.0 °F 59% 30.03 in 10.0 mi West 12.7 mph - N/A   Clear
10:35 AM 64.4 °F - 48.2 °F 56% 30.03 in 10.0 mi West 12.7 mph 16.1 mph N/A   Clear
10:55 AM 64.4 °F - 48.2 °F 56% 30.03 in 10.0 mi WSW 11.5 mph 18.4 mph N/A   Clear
11:15 AM 64.4 °F - 48.2 °F 56% 30.05 in 10.0 mi West 19.6 mph 23.0 mph N/A   Clear
11:35 AM 64.4 °F - 42.8 °F 45% 30.07 in 10.0 mi West 19.6 mph 26.5 mph N/A   Clear
11:55 AM 57.2 °F - 39.2 °F 51% 30.09 in 10.0 mi West 18.4 mph 27.6 mph N/A Thunderstorm Clear
12:15 PM 53.6 °F - 44.6 °F 72% 30.10 in 9.0 mi WNW 17.3 mph 21.9 mph N/A   Mostly Cloudy
12:35 PM 51.8 °F - 44.6 °F 76% 30.09 in 10.0 mi WNW 9.2 mph - N/A   Scattered Clouds
12:55 PM 51.8 °F - 44.6 °F 76% 30.09 in 10.0 mi West 9.2 mph - N/A   Clear
1:35 PM 53.6 °F - 42.8 °F 67% 30.11 in 10.0 mi West 12.7 mph - N/A   Partly Cloudy
1:55 PM 53.6 °F - 42.8 °F 67% 30.11 in 10.0 mi West 13.8 mph - N/A   Partly Cloudy
2:15 PM 53.6 °F - 44.6 °F 72% 30.13 in 10.0 mi West 16.1 mph 19.6 mph N/A   Clear
2:35 PM 55.4 °F - 44.6 °F 67% 30.12 in 10.0 mi WSW 15.0 mph 19.6 mph N/A   Partly Cloudy
2:55 PM 55.4 °F - 42.8 °F 63% 30.12 in 10.0 mi West 13.8 mph 19.6 mph N/A   Scattered Clouds
3:15 PM 55.4 °F - 42.8 °F 63% 30.12 in 10.0 mi West 19.6 mph - N/A   Partly Cloudy
3:35 PM 55.4 °F - 41.0 °F 58% 30.12 in 10.0 mi West 20.7 mph - N/A   Clear
3:55 PM 55.4 °F - 39.2 °F 54% 30.13 in 10.0 mi West 13.8 mph 23.0 mph N/A   Clear
4:15 PM 55.4 °F - 37.4 °F 51% 30.12 in 10.0 mi West 16.1 mph - N/A   Clear
4:35 PM 53.6 °F - 39.2 °F 58% 30.11 in 10.0 mi WNW 10.4 mph - N/A   Clear
4:55 PM 53.6 °F - 39.2 °F 58% 30.12 in 10.0 mi West 12.7 mph - N/A   Mostly Cloudy
5:15 PM 53.6 °F - 39.2 °F 58% 30.13 in 10.0 mi West 12.7 mph - N/A   Overcast
5:35 PM 53.6 °F - 39.2 °F 58% 30.14 in 10.0 mi WSW 12.7 mph - N/A   Overcast
5:55 PM 53.6 °F - 39.2 °F 58% 30.14 in 10.0 mi WSW 9.2 mph - N/A   Overcast
6:15 PM 53.6 °F - 39.2 °F 58% 30.14 in 10.0 mi WSW 10.4 mph - N/A   Scattered Clouds
6:35 PM 53.6 °F - 37.4 °F 54% 30.14 in 10.0 mi West 12.7 mph - N/A   Clear
6:55 PM 53.6 °F - 37.4 °F 54% 30.14 in 10.0 mi West 8.1 mph - N/A   Partly Cloudy
7:15 PM 51.8 °F - 33.8 °F 50% 30.15 in 10.0 mi West 8.1 mph - N/A   Partly Cloudy
7:35 PM 48.2 °F - 33.8 °F 58% 30.15 in 10.0 mi West 5.8 mph - N/A   Clear
7:55 PM 46.4 °F 42.9 °F 33.8 °F 62% 30.16 in 10.0 mi West 6.9 mph - N/A   Clear
8:15 PM 44.6 °F 40.7 °F 33.8 °F 66% 30.17 in 10.0 mi West 6.9 mph - N/A   Clear
8:35 PM 44.6 °F 40.7 °F 33.8 °F 66% 30.17 in 10.0 mi West 6.9 mph - N/A   Clear
8:55 PM 42.8 °F 37.5 °F 33.8 °F 70% 30.17 in 10.0 mi West 9.2 mph - N/A   Clear
9:15 PM 42.8 °F 39.3 °F 33.8 °F 70% 30.17 in 10.0 mi West 5.8 mph - N/A   Clear
9:35 PM 41.0 °F 35.8 °F 33.8 °F 76% 30.18 in 10.0 mi WNW 8.1 mph - N/A   Clear
9:55 PM 41.0 °F 35.8 °F 33.8 °F 76% 30.19 in 10.0 mi WNW 8.1 mph - N/A   Clear
10:15 PM 41.0 °F 35.2 °F 32.0 °F 70% 30.20 in 10.0 mi WNW 9.2 mph - N/A   Clear
10:35 PM 39.2 °F 34.2 °F 32.0 °F 75% 30.19 in 10.0 mi WNW 6.9 mph - N/A   Clear
10:55 PM 39.2 °F 35.9 °F 30.2 °F 70% 30.20 in 10.0 mi WNW 4.6 mph - N/A   Clear
11:15 PM 37.4 °F 32.8 °F 30.2 °F 75% 30.20 in 10.0 mi West 5.8 mph - N/A   Clear
11:35 PM 37.4 °F 32.1 °F 30.2 °F 75% 30.19 in 10.0 mi WNW 6.9 mph - N/A   Clear
11:55 PM 39.2 °F 33.6 °F 30.2 °F 70% 30.18 in 10.0 mi NW 8.1 mph - N/A   Clear